Regional Weather Roundup
Issued by NWS

Home | Current Version | Previous Version | Text Only | Print | Product List | Glossary On
Versions: 1 2 3 4 5 6 7 8 9 10 11 12 13 14 15 16 17 18 19 20 21 22 23 24 25 26 27 28 29 30 31 32 33 34 35 36 37 38 39 40 41 42 43 44 45 46 47 48 49 50
000
ASUS45 KBOU 302307
RWRCO

WEATHER ROUNDUP FOR COLORADO
NATIONAL WEATHER SERVICE DENVER/BOULDER CO
500 PM MDT SAT MAY 30 2015

NOTE: "FAIR" INDICATES FEW OR NO CLOUDS BELOW 12000 FEET WITH NO
SIGNIFICANT WEATHER AND/OR OBSTRUCTIONS TO VISIBILITY.

COZ001>005-013-030-031-310000-
...NORTHWEST COLORADO...

CITY           SKY/WX    TMP DP  RH WIND       PRES   REMARKS
CRAIG          MOSUNNY   74  38  27 W14G21    30.19F
HAYDEN         SUNNY     72  34  25 NW14      30.22S
MEEKER         MOSUNNY   73  36  25 W6        30.21F
MOUNT WERNER   NOT AVBL
STEAMBOAT SPGS MOSUNNY   69  36  29 W14       30.24S
WALDEN         MOSUNNY   64  27  24 SW14      30.31F
$$

COZ006>008-011-310000-
...WEST CENTRAL VALLEYS...

CITY           SKY/WX    TMP DP  RH WIND       PRES   REMARKS
GRAND JUNCTION MOSUNNY   80  38  22 NW9       30.12F
MONTROSE       PTSUNNY   78  32  18 NW3       30.20F
EAGLE          MOSUNNY   81  36  19 SW10G17   30.23F
RIFLE          PTSUNNY   79  39  23 W9        30.16F
DELTA          PTSUNNY   84  32  15 SW3       30.15F
NUCLA          PTSUNNY   77  30  18 N6        30.23F
$$

COZ017>023-064>068-310000-
...SOUTHWEST COLORADO...

CITY           SKY/WX    TMP DP  RH WIND       PRES   REMARKS
DURANGO        PTSUNNY   77  32  19 W8G23     30.22F
CORTEZ         PTSUNNY   80  30  16 NW12G20   30.20F
PAGOSA SPRINGS SUNNY     73  25  16 SW9       30.29F
TELLURIDE      MOSUNNY   65  25  21 W9G20     30.42S
WOLF CREEK PAS NOT AVBL
$$

COZ009-010-012-014-032>034-037-058>063-310000-
...CENTRAL COLORADO...

CITY           SKY/WX    TMP DP  RH WIND       PRES   REMARKS
ASPEN          MOSUNNY   67  29  24 N14G22    30.28F
BUENA VISTA    MOSUNNY   72  15  11 W10G22    30.27F
COPPER MTN     PTSUNNY   50  19  29 W20       30.55F
BERTHOUD PASS  PTSUNNY   37  32  81 NW16G24   30.57F
COTTONWOOD PAS MOSUNNY   68   9  10 W6        30.41S
GUNNISON       MOSUNNY   68  25  19 SW16      30.31F
KREMMLING      PTSUNNY   70  28  21 SW7       30.27F
LEADVILLE      MOSUNNY   59  23  25 W18       30.40F
MONARCH PASS   SUNNY     46  21  36 W25G35    30.65S
SALIDA         MOSUNNY   73  25  16 W8        30.32S
SUNLIGHT       MOSUNNY   55  30  38 W3        30.52F
WILKERSON PASS PTSUNNY   52  30  43 E8        30.52F
$$

COZ069>075-310000-
...SAN LUIS VALLEY/SANGRE DE CRISTO MOUNTAINS...

CITY           SKY/WX    TMP DP  RH WIND       PRES   REMARKS
ALAMOSA        SUNNY     71  29  21 CALM      30.26F
LA VETA PASS   PTSUNNY  N/A N/A N/A MISG      30.46S
SAGUACHE       MOSUNNY   70  32  24 S6        30.28F
$$

COZ035-036-038>040-310000-
...NORTHERN COLORADO FRONT RANGE...

CITY           SKY/WX    TMP DP  RH WIND       PRES   REMARKS
DENVER INTL AP MOSUNNY   71  44  37 E10G21    30.18F
DMNS CITY PARK   N/A     73  42  33 E15       30.15F
AURORA         MOSUNNY   72  46  39 SE10      30.20F
FRONT RANGE AP MOSUNNY   72  46  40 E7        30.20F
ERIE MUNI ARPT MOSUNNY   73  41  31 E7        30.17S
BOULDER MUN AP MOSUNNY   72  43  35 NE5       30.17F
CENTENNIAL     MOSUNNY   70  43  37 E8        30.19F
BROOMFIELD     MOSUNNY   72  43  35 E6        30.19F
FORT COLLINS   SUNNY     72  48  43 SE8       30.17F
LONGMONT       SUNNY     76  47  35 CALM      30.18F
$$

COZ041-046-047-076>085-087-088-310000-
...PIKES PEAK/PALMER DIVIDE AND SOUTHERN FOOTHILLS...

CITY           SKY/WX    TMP DP  RH WIND       PRES   REMARKS
COLO. SPRINGS  MOSUNNY   65  46  50 VRB7      30.27S
A. F. ACADEMY  MOSUNNY   63  45  52 SE13      30.26F
ELLICOTT       MOSUNNY  N/A N/A N/A S12       30.25F
FALCON         MOSUNNY   64  44  48 S13       30.30F
FORT CARSON    NOT AVBL
LIMON          SUNNY     65  48  54 SE12      30.22F
MONUMENT HILL  MOSUNNY   63  45  51 N12G17    30.29S
TRINIDAD       SUNNY     70  49  47 E10       30.23S
$$

COZ042>045-048>051-090-091-310000-
...NORTHEAST COLORADO...

CITY           SKY/WX    TMP DP  RH WIND       PRES   REMARKS
GREELEY ARPT   SUNNY     70  48  46 E13       30.17F
AKRON          SUNNY     66  48  52 SE13      30.20F
BURLINGTON     SUNNY     65  48  54 NE5       30.23F
WRAY           SUNNY     68  45  42 S5        30.21F
STERLING       SUNNY     68  50  52 S9        30.17F
HOLYOKE        SUNNY     70  41  35 S7        30.21F
FORT MORGAN    SUNNY     70  47  44 E14G20    30.18F
$$

COZ086-089-092>099-310000-
...SOUTHEAST COLORADO...

CITY           SKY/WX    TMP DP  RH WIND       PRES   REMARKS
PUEBLO         SUNNY     68  51  54 SE13      30.19F
LA JUNTA       SUNNY     71  47  42 E10G18    30.19F
LAMAR          SUNNY     69  49  48 E9        30.19F
SPRINGFIELD      N/A     66  49  54 E10       30.22F
$$



USA.gov is the U.S. government's official web portal to all federal, state and local government web resources and services.